| time (UTC) | temp F | wind direction | speed MPH | gust MPH | rain 1hr in | rain 24hr in | rain mn in | humidity % | barometer mb |
| 20260905145529 | 74 | 180 | 4.0 | 13.0 | 0.00 | 0.00 | 0.00 | 27 | 1007.0 |
| 20260905145028 | 73 | 137 | 6.0 | 15.0 | 0.00 | 0.00 | 0.00 | 27 | 1006.9 |
| 20260905144542 | 73 | 185 | 8.0 | 14.0 | 0.00 | 0.00 | 0.00 | 29 | 1006.8 |
| 20260905144025 | 73 | 131 | 5.0 | 15.0 | 0.00 | 0.00 | 0.00 | 30 | 1006.8 |
| 20260905143524 | 72 | 140 | 5.0 | 15.0 | 0.00 | 0.00 | 0.00 | 31 | 1006.7 |
| 20260905143026 | 72 | 157 | 4.0 | 12.0 | 0.00 | 0.00 | 0.00 | 31 | 1006.7 |
| 20260905142622 | 72 | 181 | 5.0 | 12.0 | 0.00 | 0.00 | 0.00 | 30 | 1006.6 |
| 20260905142026 | 72 | 152 | 6.0 | 13.0 | 0.00 | 0.00 | 0.00 | 30 | 1006.4 |
| 20260905141538 | 72 | 173 | 5.0 | 12.0 | 0.00 | 0.00 | 0.00 | 30 | 1006.3 |
| 20260905141023 | 71 | 184 | 7.0 | 12.0 | 0.00 | 0.00 | 0.00 | 30 | 1006.2 |
| 20260905140520 | 71 | 171 | 5.0 | 12.0 | 0.00 | 0.00 | 0.00 | 30 | 1006.2 |
| 20260905140020 | 71 | 157 | 5.0 | 12.0 | 0.00 | 0.00 | 0.00 | 30 | 1006.2 |
| 20260905135518 | 70 | 170 | 6.0 | 13.0 | 0.00 | 0.00 | 0.00 | 29 | 1006.1 |
| 20260905135018 | 70 | 141 | 6.0 | 12.0 | 0.00 | 0.00 | 0.00 | 28 | 1006.0 |
| 20260905134518 | 69 | 143 | 4.0 | 12.0 | 0.00 | 0.00 | 0.00 | 29 | 1006.0 |
| 20260905134017 | 69 | 360 | 3.0 | 9.0 | 0.00 | 0.00 | 0.00 | 28 | 1006.0 |
| 20260905133516 | 68 | 149 | 3.0 | 8.0 | 0.00 | 0.00 | 0.00 | 29 | 1006.0 |
| 20260905133015 | 67 | 360 | 3.0 | 8.0 | 0.00 | 0.00 | 0.00 | 29 | 1005.8 |
| 20260905132517 | 67 | 360 | 2.0 | 6.0 | 0.00 | 0.00 | 0.00 | 31 | 1005.8 |
| 20260905132017 | 66 | 360 | 2.0 | 8.0 | 0.00 | 0.00 | 0.00 | 31 | 1005.7 |
| 20260905131513 | 66 | 360 | 2.0 | 8.0 | 0.00 | 0.00 | 0.00 | 33 | 1005.7 |
| 20260905131012 | 66 | 360 | 2.0 | 5.0 | 0.00 | 0.00 | 0.00 | 33 | 1005.6 |
| 20260905130510 | 65 | 360 | 2.0 | 6.0 | 0.00 | 0.00 | 0.00 | 33 | 1005.5 |
| 20260905130010 | 65 | 360 | 2.0 | 6.0 | 0.00 | 0.00 | 0.00 | 34 | 1005.4 |
| 20260905125510 | 65 | 360 | 2.0 | 6.0 | 0.00 | 0.00 | 0.00 | 34 | 1005.4 |
| 20260905125009 | 65 | 360 | 2.0 | 4.0 | 0.00 | 0.00 | 0.00 | 35 | 1005.3 |
| 20260905124508 | 65 | 360 | 2.0 | 6.0 | 0.00 | 0.00 | 0.00 | 34 | 1005.2 |
| 20260905124008 | 66 | 360 | 2.0 | 8.0 | 0.00 | 0.00 | 0.00 | 34 | 1005.2 |
| 20260905123506 | 65 | 360 | 3.0 | 8.0 | 0.00 | 0.00 | 0.00 | 35 | 1005.1 |
| 20260905123106 | 65 | 360 | 2.0 | 6.0 | 0.00 | 0.00 | 0.00 | 36 | 1005.0 |
| 20260905122508 | 65 | 133 | 3.0 | 6.0 | 0.00 | 0.00 | 0.00 | 36 | 1005.0 |
| 20260905122005 | 66 | 160 | 3.0 | 7.0 | 0.00 | 0.00 | 0.00 | 37 | 1005.0 |
| 20260905121504 | 66 | 135 | 2.0 | 8.0 | 0.00 | 0.00 | 0.00 | 37 | 1004.8 |
| 20260905121002 | 66 | 141 | 2.0 | 9.0 | 0.00 | 0.00 | 0.00 | 36 | 1004.8 |
| 20260905120500 | 67 | 360 | 3.0 | 9.0 | 0.00 | 0.00 | 0.00 | 36 | 1004.8 |
| 20260905120001 | 67 | 114 | 3.0 | 8.0 | 0.00 | 0.00 | 0.00 | 37 | 1004.8 |
| 20260905115602 | 67 | 134 | 3.0 | 9.0 | 0.00 | 0.00 | 0.00 | 37 | 1004.8 |
| 20260905115100 | 67 | 138 | 5.0 | 10.0 | 0.00 | 0.00 | 0.00 | 38 | 1004.8 |
| 20260905114630 | 67 | 176 | 4.0 | 10.0 | 0.00 | 0.00 | 0.00 | 38 | 1004.7 |
| 20260905114058 | 67 | 163 | 3.0 | 9.0 | 0.00 | 0.00 | 0.00 | 39 | 1004.8 |
| 20260905113558 | 67 | 143 | 3.0 | 8.0 | 0.00 | 0.00 | 0.00 | 39 | 1004.7 |
| 20260905113100 | 67 | 153 | 3.0 | 8.0 | 0.00 | 0.00 | 0.00 | 40 | 1004.7 |
| 20260905112557 | 67 | 125 | 4.0 | 8.0 | 0.00 | 0.00 | 0.00 | 40 | 1004.7 |
| 20260905112057 | 67 | 143 | 4.0 | 8.0 | 0.00 | 0.00 | 0.00 | 41 | 1004.7 |
| 20260905111557 | 68 | 141 | 2.0 | 8.0 | 0.00 | 0.00 | 0.00 | 39 | 1004.7 |
| 20260905111057 | 68 | 134 | 3.0 | 8.0 | 0.00 | 0.00 | 0.00 | 39 | 1004.8 |
| 20260905110556 | 68 | 139 | 3.0 | 9.0 | 0.00 | 0.00 | 0.00 | 38 | 1004.7 |
| 20260905110056 | 69 | 145 | 4.0 | 8.0 | 0.00 | 0.00 | 0.00 | 38 | 1004.6 |
| 20260905105555 | 69 | 135 | 2.0 | 9.0 | 0.00 | 0.00 | 0.00 | 37 | 1004.6 |
| 20260905105056 | 70 | 119 | 4.0 | 9.0 | 0.00 | 0.00 | 0.00 | 38 | 1004.6 |
| 20260905104556 | 70 | 138 | 2.0 | 9.0 | 0.00 | 0.00 | 0.00 | 36 | 1004.5 |
| 20260905104058 | 71 | 177 | 4.0 | 9.0 | 0.00 | 0.00 | 0.00 | 36 | 1004.5 |
| 20260905103558 | 71 | 125 | 3.0 | 9.0 | 0.00 | 0.00 | 0.00 | 36 | 1004.5 |
| 20260905103055 | 70 | 161 | 3.0 | 9.0 | 0.00 | 0.00 | 0.00 | 36 | 1004.5 |
| 20260905102554 | 70 | 182 | 3.0 | 8.0 | 0.00 | 0.00 | 0.00 | 37 | 1004.5 |
| 20260905102054 | 69 | 151 | 3.0 | 8.0 | 0.00 | 0.00 | 0.00 | 38 | 1004.6 |
| 20260905101555 | 69 | 140 | 2.0 | 10.0 | 0.00 | 0.00 | 0.00 | 39 | 1004.4 |
| 20260905101053 | 68 | 136 | 2.0 | 10.0 | 0.00 | 0.00 | 0.00 | 40 | 1004.4 |
| 20260905100553 | 68 | 126 | 2.0 | 7.0 | 0.00 | 0.00 | 0.00 | 38 | 1004.3 |
| 20260905100111 | 68 | 132 | 3.0 | 7.0 | 0.00 | 0.00 | 0.00 | 38 | 1004.4 |
| 20260905095552 | 68 | 115 | 3.0 | 6.0 | 0.00 | 0.00 | 0.00 | 37 | 1004.2 |
| 20260905095054 | 68 | 134 | 3.0 | 6.0 | 0.00 | 0.00 | 0.00 | 39 | 1004.2 |
| 20260905094604 | 67 | 133 | 2.0 | 4.0 | 0.00 | 0.00 | 0.00 | 38 | 1004.2 |
| 20260905094050 | 68 | 131 | 2.0 | 6.0 | 0.00 | 0.00 | 0.00 | 36 | 1004.1 |
| 20260905093549 | 68 | 138 | 1.0 | 6.0 | 0.00 | 0.00 | 0.00 | 35 | 1004.0 |
| 20260905093049 | 68 | 122 | 1.0 | 4.0 | 0.00 | 0.00 | 0.00 | 36 | 1004.0 |
| 20260905092551 | 68 | 146 | 1.0 | 8.0 | 0.00 | 0.00 | 0.00 | 39 | 1004.0 |
| 20260905092048 | 68 | 146 | 1.0 | 8.0 | 0.00 | 0.00 | 0.00 | 38 | 1003.8 |
| 20260905091558 | 67 | 119 | 1.0 | 4.0 | 0.00 | 0.00 | 0.00 | 38 | 1003.9 |
| 20260905091047 | 67 | 132 | 0.0 | 4.0 | 0.00 | 0.00 | 0.00 | 40 | 1003.9 |
| 20260905090545 | 67 | 120 | 2.0 | 4.0 | 0.00 | 0.00 | 0.00 | 41 | 1003.7 |
| 20260905090044 | 68 | 132 | 1.0 | 3.0 | 0.00 | 0.00 | 0.00 | 42 | 1003.7 |
| 20260905085543 | 68 | 134 | 1.0 | 3.0 | 0.00 | 0.00 | 0.00 | 42 | 1003.6 |
| 20260905085042 | 69 | 131 | 0.0 | 4.0 | 0.00 | 0.00 | 0.00 | 42 | 1003.6 |
| 20260905084541 | 69 | 121 | 1.0 | 4.0 | 0.00 | 0.00 | 0.00 | 42 | 1003.5 |
| 20260905084040 | 69 | 132 | 0.0 | 6.0 | 0.00 | 0.00 | 0.00 | 40 | 1003.4 |
| 20260905083544 | 69 | 136 | 1.0 | 7.0 | 0.00 | 0.00 | 0.00 | 45 | 1003.3 |
| 20260905083039 | 69 | 134 | 3.0 | 7.0 | 0.00 | 0.00 | 0.00 | 44 | 1003.3 |
| 20260905082538 | 69 | 120 | 2.0 | 7.0 | 0.00 | 0.00 | 0.00 | 44 | 1003.3 |
| 20260905082036 | 70 | 112 | 2.0 | 8.0 | 0.00 | 0.00 | 0.00 | 39 | 1003.2 |
| 20260905081537 | 70 | 92 | 3.0 | 8.0 | 0.00 | 0.00 | 0.00 | 40 | 1003.1 |
| 20260905081035 | 69 | 148 | 2.0 | 5.0 | 0.00 | 0.00 | 0.00 | 40 | 1003.2 |
| 20260905080534 | 70 | 115 | 1.0 | 5.0 | 0.00 | 0.00 | 0.00 | 40 | 1003.1 |
| 20260905080038 | 70 | 150 | 0.0 | 5.0 | 0.00 | 0.00 | 0.00 | 38 | 1003.1 |
| 20260905075531 | 71 | 131 | 1.0 | 5.0 | 0.00 | 0.00 | 0.00 | 37 | 1003.0 |
| 20260905075030 | 71 | 153 | 1.0 | 5.0 | 0.00 | 0.00 | 0.00 | 37 | 1003.1 |
| 20260905074542 | 71 | 134 | 2.0 | 5.0 | 0.00 | 0.00 | 0.00 | 36 | 1003.1 |
| 20260905074029 | 71 | 136 | 2.0 | 5.0 | 0.00 | 0.00 | 0.00 | 36 | 1003.0 |
| 20260905073528 | 71 | 148 | 1.0 | 5.0 | 0.00 | 0.00 | 0.00 | 36 | 1002.9 |
| 20260905073033 | 72 | 152 | 0.0 | 3.0 | 0.00 | 0.00 | 0.00 | 36 | 1002.8 |
| 20260905072526 | 72 | 178 | 0.0 | 4.0 | 0.00 | 0.00 | 0.00 | 35 | 1002.7 |
| 20260905072025 | 72 | 119 | 1.0 | 4.0 | 0.00 | 0.00 | 0.00 | 35 | 1002.6 |
| 20260905071525 | 73 | 154 | 1.0 | 3.0 | 0.00 | 0.00 | 0.00 | 35 | 1002.6 |
| 20260905071024 | 73 | 138 | 1.0 | 4.0 | 0.00 | 0.00 | 0.00 | 34 | 1002.6 |
| 20260905070523 | 73 | 176 | 1.0 | 5.0 | 0.00 | 0.00 | 0.00 | 34 | 1002.5 |
| 20260905070022 | 73 | 177 | 2.0 | 5.0 | 0.00 | 0.00 | 0.00 | 34 | 1002.5 |
| 20260905065523 | 73 | 184 | 1.0 | 6.0 | 0.00 | 0.00 | 0.00 | 34 | 1002.4 |
| 20260905065027 | 73 | 128 | 1.0 | 6.0 | 0.00 | 0.00 | 0.00 | 34 | 1002.4 |
| 20260905064521 | 73 | 159 | 1.0 | 5.0 | 0.00 | 0.00 | 0.00 | 35 | 1002.3 |
| 20260905064021 | 73 | 151 | 1.0 | 5.0 | 0.00 | 0.00 | 0.00 | 34 | 1002.2 |
| 20260905063521 | 73 | 179 | 2.0 | 5.0 | 0.00 | 0.00 | 0.00 | 34 | 1002.2 |
| 20260905063021 | 73 | 171 | 3.0 | 5.0 | 0.00 | 0.00 | 0.00 | 35 | 1002.1 |
| 20260905062519 | 73 | 163 | 2.0 | 5.0 | 0.00 | 0.00 | 0.00 | 37 | 1002.0 |
| 20260905062021 | 74 | 145 | 2.0 | 5.0 | 0.00 | 0.00 | 0.00 | 33 | 1002.0 |
| 20260905061517 | 74 | 144 | 3.0 | 8.0 | 0.00 | 0.00 | 0.00 | 33 | 1001.9 |
| 20260905061016 | 75 | 168 | 3.0 | 7.0 | 0.00 | 0.00 | 0.00 | 32 | 1001.8 |
| 20260905060513 | 75 | 165 | 2.0 | 8.0 | 0.00 | 0.00 | 0.00 | 31 | 1001.7 |
| 20260905060016 | 75 | 140 | 3.0 | 8.0 | 0.00 | 0.00 | 0.00 | 31 | 1001.7 |
| 20260905055512 | 75 | 161 | 2.0 | 8.0 | 0.00 | 0.00 | 0.00 | 32 | 1001.6 |
| 20260905055011 | 75 | 178 | 2.0 | 8.0 | 0.00 | 0.00 | 0.00 | 33 | 1001.6 |
| 20260905054514 | 76 | 166 | 2.0 | 10.0 | 0.00 | 0.00 | 0.00 | 31 | 1001.5 |
| 20260905054011 | 76 | 134 | 3.0 | 10.0 | 0.00 | 0.00 | 0.00 | 30 | 1001.5 |
| 20260905053513 | 75 | 133 | 4.0 | 9.0 | 0.00 | 0.00 | 0.00 | 32 | 1001.4 |
| 20260905053011 | 75 | 169 | 2.0 | 9.0 | 0.00 | 0.00 | 0.00 | 31 | 1001.4 |
| 20260905052512 | 75 | 132 | 2.0 | 9.0 | 0.00 | 0.00 | 0.00 | 29 | 1001.4 |
| 20260905052009 | 75 | 146 | 2.0 | 10.0 | 0.00 | 0.00 | 0.00 | 29 | 1001.3 |
| 20260905051510 | 75 | 129 | 3.0 | 10.0 | 0.00 | 0.00 | 0.00 | 28 | 1001.3 |
| 20260905051009 | 75 | 154 | 2.0 | 9.0 | 0.00 | 0.00 | 0.00 | 28 | 1001.2 |
| 20260905050512 | 75 | 138 | 3.0 | 9.0 | 0.00 | 0.00 | 0.00 | 28 | 1001.2 |
| 20260905050011 | 74 | 128 | 3.0 | 9.0 | 0.00 | 0.00 | 0.00 | 28 | 1001.1 |
| 20260905045509 | 74 | 127 | 3.0 | 8.0 | 0.00 | 0.00 | 0.00 | 28 | 1001.2 |
| 20260905045009 | 74 | 135 | 3.0 | 7.0 | 0.00 | 0.00 | 0.00 | 28 | 1001.1 |
| 20260905044508 | 74 | 124 | 2.0 | 5.0 | 0.00 | 0.00 | 0.00 | 29 | 1001.1 |
| 20260905044008 | 74 | 146 | 3.0 | 7.0 | 0.00 | 0.00 | 0.00 | 29 | 1001.1 |
| 20260905043507 | 75 | 128 | 3.0 | 7.0 | 0.00 | 0.00 | 0.00 | 29 | 1001.1 |
| 20260905043008 | 75 | 139 | 3.0 | 7.0 | 0.00 | 0.00 | 0.00 | 28 | 1001.0 |
| 20260905042510 | 75 | 103 | 3.0 | 7.0 | 0.00 | 0.00 | 0.00 | 28 | 1001.0 |
| 20260905042006 | 75 | 134 | 2.0 | 6.0 | 0.00 | 0.00 | 0.00 | 28 | 1000.9 |
| 20260905041507 | 75 | 136 | 2.0 | 6.0 | 0.00 | 0.00 | 0.00 | 28 | 1000.9 |
| 20260905041006 | 76 | 137 | 2.0 | 5.0 | 0.00 | 0.00 | 0.00 | 26 | 1000.9 |
| 20260905040505 | 77 | 125 | 2.0 | 4.0 | 0.00 | 0.00 | 0.00 | 26 | 1000.9 |
| 20260905040005 | 78 | 136 | 2.0 | 6.0 | 0.00 | 0.00 | 0.00 | 24 | 1000.8 |
| 20260905035505 | 80 | 153 | 2.0 | 9.0 | 0.00 | 0.00 | 0.00 | 22 | 1000.7 |
| 20260905035005 | 81 | 141 | 3.0 | 9.0 | 0.00 | 0.00 | 0.00 | 21 | 1000.7 |
| 20260905034505 | 81 | 182 | 3.0 | 9.0 | 0.00 | 0.00 | 0.00 | 21 | 1000.6 |
| 20260905034004 | 80 | 173 | 3.0 | 7.0 | 0.00 | 0.00 | 0.00 | 22 | 1000.5 |
| 20260905033504 | 80 | 179 | 3.0 | 8.0 | 0.00 | 0.00 | 0.00 | 23 | 1000.6 |
| 20260905033013 | 80 | 176 | 2.0 | 5.0 | 0.00 | 0.00 | 0.00 | 23 | 1000.6 |
| 20260905032504 | 81 | 180 | 3.0 | 5.0 | 0.00 | 0.00 | 0.00 | 23 | 1000.6 |
| 20260905032004 | 81 | 183 | 3.0 | 5.0 | 0.00 | 0.00 | 0.00 | 23 | 1000.5 |
| 20260905031505 | 81 | 183 | 2.0 | 4.0 | 0.00 | 0.00 | 0.00 | 23 | 1000.5 |
| 20260905031004 | 81 | 180 | 2.0 | 4.0 | 0.00 | 0.00 | 0.00 | 23 | 1000.4 |
| 20260905030503 | 82 | 172 | 2.0 | 4.0 | 0.00 | 0.00 | 0.00 | 22 | 1000.5 |
| 20260905030005 | 82 | 185 | 3.0 | 7.0 | 0.00 | 0.00 | 0.00 | 22 | 1000.3 |
| 20260905025506 | 82 | 172 | 2.0 | 8.0 | 0.00 | 0.00 | 0.00 | 22 | 1000.3 |
| 20260905025003 | 82 | 171 | 3.0 | 8.0 | 0.00 | 0.00 | 0.00 | 23 | 1000.2 |
| 20260905024504 | 81 | 163 | 3.0 | 6.0 | 0.00 | 0.00 | 0.00 | 23 | 1000.1 |
| 20260905024004 | 82 | 145 | 1.0 | 7.0 | 0.00 | 0.00 | 0.00 | 22 | 1000.0 |
| 20260905023502 | 83 | 163 | 1.0 | 7.0 | 0.00 | 0.00 | 0.00 | 22 | 1000.0 |
| 20260905023010 | 83 | 155 | 2.0 | 10.0 | 0.00 | 0.00 | 0.00 | 21 | 1000.0 |
| 20260905022502 | 84 | 162 | 3.0 | 10.0 | 0.00 | 0.00 | 0.00 | 21 | 1000.0 |
| 20260905022002 | 84 | 149 | 4.0 | 12.0 | 0.00 | 0.00 | 0.00 | 21 | 999.9 |
| 20260905021503 | 84 | 161 | 3.0 | 12.0 | 0.00 | 0.00 | 0.00 | 20 | 999.8 |
| 20260905021102 | 84 | 174 | 4.0 | 12.0 | 0.00 | 0.00 | 0.00 | 20 | 999.8 |
| 20260905020501 | 85 | 181 | 4.0 | 11.0 | 0.00 | 0.00 | 0.00 | 20 | 999.7 |
| 20260905020002 | 85 | 173 | 5.0 | 11.0 | 0.00 | 0.00 | 0.00 | 20 | 999.7 |
| 20260905015501 | 85 | 183 | 5.0 | 12.0 | 0.00 | 0.00 | 0.00 | 20 | 999.7 |
| 20260905015102 | 85 | 156 | 6.0 | 12.0 | 0.00 | 0.00 | 0.00 | 20 | 999.7 |
| 20260905015000 | 85 | 159 | 4.0 | 14.0 | 0.00 | 0.00 | 0.00 | 20 | 999.7 |
| 20260905014616 | 85 | 159 | 6.0 | 13.0 | 0.00 | 0.00 | 0.00 | 20 | 999.6 |
| 20260905014100 | 86 | 155 | 5.0 | 13.0 | 0.00 | 0.00 | 0.00 | 20 | 999.7 |
| 20260905013602 | 86 | 184 | 6.0 | 15.0 | 0.00 | 0.00 | 0.00 | 19 | 999.7 |
| 20260905013101 | 86 | 188 | 6.0 | 15.0 | 0.00 | 0.00 | 0.00 | 19 | 999.7 |
| 20260905012600 | 86 | 194 | 5.0 | 15.0 | 0.00 | 0.00 | 0.00 | 19 | 999.7 |
| 20260905012101 | 86 | 176 | 6.0 | 15.0 | 0.00 | 0.00 | 0.00 | 20 | 999.6 |
| 20260905011605 | 87 | 194 | 7.0 | 15.0 | 0.00 | 0.00 | 0.00 | 19 | 999.6 |
| 20260905011102 | 87 | 186 | 6.0 | 22.0 | 0.00 | 0.00 | 0.00 | 19 | 999.7 |
| 20260905010602 | 87 | 188 | 8.0 | 22.0 | 0.00 | 0.00 | 0.00 | 19 | 999.6 |
| 20260905010059 | 87 | 206 | 10.0 | 18.0 | 0.00 | 0.00 | 0.00 | 18 | 999.6 |
| 20260905005559 | 87 | 182 | 7.0 | 17.0 | 0.00 | 0.00 | 0.00 | 19 | 999.5 |
| 20260905005059 | 87 | 209 | 9.0 | 17.0 | 0.00 | 0.00 | 0.00 | 18 | 999.5 |
| 20260905004559 | 88 | 185 | 6.0 | 15.0 | 0.00 | 0.00 | 0.00 | 19 | 999.6 |
| 20260905004058 | 88 | 198 | 7.0 | 21.0 | 0.00 | 0.00 | 0.00 | 18 | 999.6 |
| 20260905003604 | 88 | 162 | 7.0 | 21.0 | 0.00 | 0.00 | 0.00 | 18 | 999.6 |
| 20260905003058 | 88 | 184 | 7.0 | 12.0 | 0.00 | 0.00 | 0.00 | 18 | 999.6 |
| 20260905002556 | 88 | 186 | 9.0 | 23.0 | 0.00 | 0.00 | 0.00 | 18 | 999.6 |
| 20260905002057 | 88 | 179 | 11.0 | 23.0 | 0.00 | 0.00 | 0.00 | 17 | 999.6 |
| 20260905001606 | 88 | 181 | 7.0 | 20.0 | 0.00 | 0.00 | 0.00 | 18 | 999.6 |
| 20260905001056 | 88 | 176 | 9.0 | 20.0 | 0.00 | 0.00 | 0.00 | 17 | 999.8 |
| 20260905000556 | 88 | 188 | 8.0 | 17.0 | 0.00 | 0.00 | 0.00 | 17 | 999.6 |
| 20260905000112 | 88 | 189 | 7.0 | 18.0 | 0.00 | 0.00 | 0.00 | 17 | 999.5 |
| 20260904235555 | 88 | 180 | 7.0 | 18.0 | 0.00 | 0.00 | 0.00 | 17 | 999.7 |
| 20260904235054 | 88 | 166 | 7.0 | 18.0 | 0.00 | 0.00 | 0.00 | 17 | 999.7 |
| 20260904234555 | 88 | 159 | 7.0 | 17.0 | 0.00 | 0.00 | 0.00 | 17 | 999.7 |
| 20260904234054 | 88 | 187 | 8.0 | 13.0 | 0.00 | 0.00 | 0.00 | 16 | 999.7 |
| 20260904233553 | 88 | 195 | 9.0 | 25.0 | 0.00 | 0.00 | 0.00 | 16 | 999.7 |
| 20260904233054 | 88 | 172 | 8.0 | 25.0 | 0.00 | 0.00 | 0.00 | 16 | 999.8 |
| 20260904232553 | 88 | 171 | 8.0 | 18.0 | 0.00 | 0.00 | 0.00 | 16 | 999.7 |
| 20260904232056 | 88 | 184 | 10.0 | 18.0 | 0.00 | 0.00 | 0.00 | 16 | 999.8 |
| 20260904231557 | 88 | 158 | 7.0 | 21.0 | 0.00 | 0.00 | 0.00 | 15 | 999.8 |
| 20260904231052 | 88 | 192 | 10.0 | 21.0 | 0.00 | 0.00 | 0.00 | 15 | 999.9 |
| 20260904230552 | 88 | 188 | 12.0 | 21.0 | 0.00 | 0.00 | 0.00 | 15 | 999.9 |
| 20260904230051 | 88 | 186 | 12.0 | 21.0 | 0.00 | 0.00 | 0.00 | 16 | 999.9 |
| 20260904225551 | 88 | 189 | 10.0 | 20.0 | 0.00 | 0.00 | 0.00 | 15 | 999.9 |
| 20260904225050 | 88 | 169 | 9.0 | 20.0 | 0.00 | 0.00 | 0.00 | 15 | 1000.0 |
| 20260904224550 | 88 | 163 | 9.0 | 14.0 | 0.00 | 0.00 | 0.00 | 15 | 1000.0 |
| 20260904224049 | 88 | 194 | 9.0 | 19.0 | 0.00 | 0.00 | 0.00 | 15 | 1000.0 |
| 20260904223550 | 89 | 184 | 9.0 | 17.0 | 0.00 | 0.00 | 0.00 | 16 | 1000.1 |
| 20260904223050 | 88 | 181 | 7.0 | 21.0 | 0.00 | 0.00 | 0.00 | 16 | 1000.2 |
| 20260904222548 | 88 | 178 | 10.0 | 21.0 | 0.00 | 0.00 | 0.00 | 15 | 1000.2 |
| 20260904222049 | 88 | 154 | 11.0 | 19.0 | 0.00 | 0.00 | 0.00 | 15 | 1000.3 |
| 20260904221547 | 89 | 179 | 8.0 | 24.0 | 0.00 | 0.00 | 0.00 | 16 | 1000.4 |
| 20260904221050 | 88 | 194 | 11.0 | 24.0 | 0.00 | 0.00 | 0.00 | 15 | 1000.4 |
| 20260904220548 | 89 | 183 | 8.0 | 19.0 | 0.00 | 0.00 | 0.00 | 15 | 1000.5 |
| 20260904220108 | 89 | 184 | 12.0 | 18.0 | 0.00 | 0.00 | 0.00 | 15 | 1000.6 |
| 20260904215546 | 89 | 186 | 9.0 | 18.0 | 0.00 | 0.00 | 0.00 | 15 | 1000.7 |
| 20260904215046 | 89 | 187 | 9.0 | 17.0 | 0.00 | 0.00 | 0.00 | 15 | 1000.7 |
| 20260904214546 | 89 | 180 | 8.0 | 17.0 | 0.00 | 0.00 | 0.00 | 14 | 1000.7 |
| 20260904214045 | 89 | 137 | 5.0 | 21.0 | 0.00 | 0.00 | 0.00 | 16 | 1000.8 |
| 20260904213544 | 88 | 203 | 10.0 | 28.0 | 0.00 | 0.00 | 0.00 | 15 | 1000.8 |
| 20260904213044 | 88 | 172 | 11.0 | 28.0 | 0.00 | 0.00 | 0.00 | 15 | 1000.8 |
| 20260904212544 | 88 | 176 | 11.0 | 18.0 | 0.00 | 0.00 | 0.00 | 15 | 1000.9 |
| 20260904212047 | 88 | 166 | 11.0 | 23.0 | 0.00 | 0.00 | 0.00 | 15 | 1001.1 |
| 20260904211552 | 88 | 161 | 10.0 | 17.0 | 0.00 | 0.00 | 0.00 | 15 | 1001.1 |
| 20260904211043 | 88 | 189 | 8.0 | 20.0 | 0.00 | 0.00 | 0.00 | 15 | 1001.2 |
| 20260904210542 | 88 | 165 | 10.0 | 20.0 | 0.00 | 0.00 | 0.00 | 16 | 1001.2 |
| 20260904210047 | 88 | 147 | 10.0 | 20.0 | 0.00 | 0.00 | 0.00 | 15 | 1001.3 |
| 20260904205542 | 87 | 184 | 9.0 | 21.0 | 0.00 | 0.00 | 0.00 | 15 | 1001.3 |
| 20260904205040 | 87 | 170 | 7.0 | 21.0 | 0.00 | 0.00 | 0.00 | 16 | 1001.2 |
| 20260904204546 | 87 | 184 | 9.0 | 21.0 | 0.00 | 0.00 | 0.00 | 15 | 1001.4 |
| 20260904204044 | 87 | 188 | 10.0 | 21.0 | 0.00 | 0.00 | 0.00 | 15 | 1001.3 |
| 20260904203539 | 87 | 190 | 12.0 | 21.0 | 0.00 | 0.00 | 0.00 | 15 | 1001.5 |
| 20260904203043 | 86 | 193 | 8.0 | 19.0 | 0.00 | 0.00 | 0.00 | 16 | 1001.6 |
| 20260904202537 | 86 | 177 | 9.0 | 22.0 | 0.00 | 0.00 | 0.00 | 16 | 1001.5 |
| 20260904202037 | 86 | 180 | 10.0 | 19.0 | 0.00 | 0.00 | 0.00 | 16 | 1001.5 |
| 20260904201537 | 86 | 172 | 10.0 | 16.0 | 0.00 | 0.00 | 0.00 | 16 | 1001.6 |
| 20260904201037 | 86 | 167 | 7.0 | 15.0 | 0.00 | 0.00 | 0.00 | 18 | 1001.7 |
| 20260904200537 | 86 | 189 | 10.0 | 17.0 | 0.00 | 0.00 | 0.00 | 17 | 1001.7 |
| 20260904200039 | 86 | 201 | 5.0 | 17.0 | 0.00 | 0.00 | 0.00 | 18 | 1001.8 |
| 20260904195535 | 85 | 207 | 7.0 | 17.0 | 0.00 | 0.00 | 0.00 | 17 | 1001.8 |
| 20260904195033 | 85 | 158 | 7.0 | 16.0 | 0.00 | 0.00 | 0.00 | 18 | 1001.9 |
| 20260904194548 | 85 | 183 | 9.0 | 18.0 | 0.00 | 0.00 | 0.00 | 17 | 1001.9 |
| 20260904194037 | 85 | 162 | 9.0 | 21.0 | 0.00 | 0.00 | 0.00 | 18 | 1002.0 |
| 20260904193536 | 85 | 160 | 11.0 | 21.0 | 0.00 | 0.00 | 0.00 | 17 | 1002.1 |
| 20260904193036 | 84 | 170 | 7.0 | 16.0 | 0.00 | 0.00 | 0.00 | 18 | 1002.1 |
| 20260904192533 | 84 | 238 | 9.0 | 16.0 | 0.00 | 0.00 | 0.00 | 18 | 1002.1 |
| 20260904192034 | 84 | 196 | 7.0 | 19.0 | 0.00 | 0.00 | 0.00 | 18 | 1002.1 |
| 20260904191540 | 84 | 152 | 11.0 | 19.0 | 0.00 | 0.00 | 0.00 | 18 | 1002.1 |
| 20260904191033 | 84 | 178 | 7.0 | 25.0 | 0.00 | 0.00 | 0.00 | 18 | 1002.1 |
| 20260904190529 | 83 | 163 | 12.0 | 25.0 | 0.00 | 0.00 | 0.00 | 18 | 1002.2 |
| 20260904190032 | 83 | 175 | 13.0 | 23.0 | 0.00 | 0.00 | 0.00 | 18 | 1002.2 |
| 20260904185528 | 83 | 200 | 6.0 | 26.0 | 0.00 | 0.00 | 0.00 | 20 | 1002.3 |
| 20260904185028 | 83 | 163 | 10.0 | 26.0 | 0.00 | 0.00 | 0.00 | 20 | 1002.3 |
| 20260904184526 | 83 | 179 | 8.0 | 18.0 | 0.00 | 0.00 | 0.00 | 19 | 1002.3 |
| 20260904184026 | 82 | 175 | 9.0 | 18.0 | 0.00 | 0.00 | 0.00 | 22 | 1002.4 |
| 20260904183525 | 83 | 178 | 9.0 | 18.0 | 0.00 | 0.00 | 0.00 | 22 | 1002.6 |
| 20260904183024 | 82 | 178 | 7.0 | 20.0 | 0.00 | 0.00 | 0.00 | 23 | 1002.6 |
| 20260904182528 | 82 | 136 | 9.0 | 20.0 | 0.00 | 0.00 | 0.00 | 24 | 1002.7 |
| 20260904182022 | 81 | 127 | 8.0 | 25.0 | 0.00 | 0.00 | 0.00 | 25 | 1002.8 |
| 20260904181522 | 81 | 177 | 11.0 | 25.0 | 0.00 | 0.00 | 0.00 | 24 | 1002.7 |
| 20260904181021 | 81 | 127 | 8.0 | 16.0 | 0.00 | 0.00 | 0.00 | 24 | 1002.8 |
| 20260904180521 | 81 | 138 | 8.0 | 18.0 | 0.00 | 0.00 | 0.00 | 24 | 1002.8 |
| 20260904180019 | 81 | 159 | 8.0 | 24.0 | 0.00 | 0.00 | 0.00 | 25 | 1003.0 |
| 20260904175518 | 81 | 184 | 10.0 | 24.0 | 0.00 | 0.00 | 0.00 | 25 | 1002.8 |
| 20260904175017 | 80 | 156 | 6.0 | 19.0 | 0.00 | 0.00 | 0.00 | 25 | 1002.9 |
| 20260904174535 | 80 | 130 | 11.0 | 20.0 | 0.00 | 0.00 | 0.00 | 25 | 1002.9 |
| 20260904174017 | 80 | 177 | 10.0 | 22.0 | 0.00 | 0.00 | 0.00 | 25 | 1003.0 |
| 20260904173515 | 80 | 170 | 9.0 | 23.0 | 0.00 | 0.00 | 0.00 | 27 | 1003.0 |
| 20260904173014 | 80 | 169 | 9.0 | 23.0 | 0.00 | 0.00 | 0.00 | 25 | 1003.1 |
| 20260904172513 | 80 | 161 | 6.0 | 21.0 | 0.00 | 0.00 | 0.00 | 25 | 1003.2 |
| 20260904172012 | 80 | 186 | 6.0 | 19.0 | 0.00 | 0.00 | 0.00 | 26 | 1003.1 |
| 20260904171510 | 79 | 186 | 11.0 | 19.0 | 0.00 | 0.00 | 0.00 | 26 | 1003.2 |
| 20260904171009 | 79 | 134 | 8.0 | 18.0 | 0.00 | 0.00 | 0.00 | 25 | 1003.2 |
| 20260904170512 | 79 | 150 | 8.0 | 18.0 | 0.00 | 0.00 | 0.00 | 24 | 1003.2 |
| 20260904170107 | 79 | 119 | 6.0 | 22.0 | 0.00 | 0.00 | 0.00 | 26 | 1003.3 |
| 20260904165505 | 79 | 156 | 11.0 | 22.0 | 0.00 | 0.00 | 0.00 | 24 | 1003.2 |
| 20260904165004 | 79 | 144 | 9.0 | 21.0 | 0.00 | 0.00 | 0.00 | 24 | 1003.3 |
| 20260904164503 | 79 | 175 | 6.0 | 18.0 | 0.00 | 0.00 | 0.00 | 26 | 1003.2 |
| 20260904164005 | 78 | 134 | 7.0 | 20.0 | 0.00 | 0.00 | 0.00 | 25 | 1003.3 |
| 20260904163501 | 78 | 144 | 10.0 | 20.0 | 0.00 | 0.00 | 0.00 | 25 | 1003.5 |
| 20260904163108 | 78 | 150 | 7.0 | 18.0 | 0.00 | 0.00 | 0.00 | 25 | 1003.5 |
| 20260904162558 | 78 | 152 | 7.0 | 14.0 | 0.00 | 0.00 | 0.00 | 25 | 1003.5 |
| 20260904162056 | 77 | 163 | 8.0 | 14.0 | 0.00 | 0.00 | 0.00 | 25 | 1003.5 |
| 20260904161556 | 77 | 165 | 6.0 | 19.0 | 0.00 | 0.00 | 0.00 | 25 | 1003.5 |
| 20260904161057 | 77 | 111 | 8.0 | 19.0 | 0.00 | 0.00 | 0.00 | 25 | 1003.7 |
| 20260904160553 | 77 | 144 | 10.0 | 17.0 | 0.00 | 0.00 | 0.00 | 25 | 1003.5 |
| 20260904160055 | 77 | 190 | 7.0 | 14.0 | 0.00 | 0.00 | 0.00 | 24 | 1003.5 |
| 20260904155551 | 77 | 174 | 6.0 | 19.0 | 0.00 | 0.00 | 0.00 | 27 | 1003.5 |
| 20260904155052 | 76 | 132 | 10.0 | 20.0 | 0.00 | 0.00 | 0.00 | 26 | 1003.5 |
| 20260904154547 | 76 | 178 | 12.0 | 17.0 | 0.00 | 0.00 | 0.00 | 25 | 1003.4 |
| 20260904154045 | 76 | 163 | 7.0 | 17.0 | 0.00 | 0.00 | 0.00 | 26 | 1003.5 |
| 20260904153543 | 76 | 186 | 9.0 | 17.0 | 0.00 | 0.00 | 0.00 | 26 | 1003.4 |
| 20260904153047 | 75 | 152 | 7.0 | 17.0 | 0.00 | 0.00 | 0.00 | 26 | 1003.5 |
| 20260904152541 | 75 | 178 | 9.0 | 13.0 | 0.00 | 0.00 | 0.00 | 26 | 1003.5 |
| 20260904152041 | 75 | 183 | 7.0 | 15.0 | 0.00 | 0.00 | 0.00 | 26 | 1003.6 |
| 20260904151538 | 75 | 161 | 8.0 | 14.0 | 0.00 | 0.00 | 0.00 | 26 | 1003.6 |
| 20260904151040 | 74 | 162 | 4.0 | 19.0 | 0.00 | 0.00 | 0.00 | 25 | 1003.6 |
| 20260904150537 | 74 | 162 | 8.0 | 19.0 | 0.00 | 0.00 | 0.00 | 24 | 1003.6 |
| 20260904150044 | 74 | 183 | 7.0 | 18.0 | 0.00 | 0.00 | 0.00 | 24 | 1003.6 |